Location: Mentone
(34.5413°N, 85.5351°W)
Time: 03:13:52
(UTC-05:00)

Transit 2A Rocket - Visible Passes

Search period start: 18 April 2014 00:00
Search period end: 28 April 2014 00:00
Orbit: 593 x 916 km, 66.7° (Epoch: 17 April)

Date Brightness Start Highest point End Pass type
(mag) Time Alt. Az. Time Alt. Az. Time Alt. Az.
25 Apr 7.4 22:59:42 10° NNW 23:00:26 14° N 23:00:26 14° N visible
26 Apr 6.9 22:18:39 10° N 22:19:59 16° NNE 22:19:59 16° NNE visible
27 Apr 6.9 21:38:12 10° NNE 21:39:33 13° NE 21:39:33 13° NE visible
27 Apr 7.6 23:19:07 10° NW 23:19:31 12° NW 23:19:31 12° NW visible
